z/d,0,0,50,50,100,100,150,150,200,200,300,300,400,400,500,500,600,600,750,750,1000,1000,1250,1250,1500,1500,1750,1750,1900,1900,2000,2000
2018.11.07-01:00,2.27,216.89,2.09,215.21,1.93,218.34,1.66,210.09,1.66,211.34,1.49,208.43,1.36,207.30,1.19,203.55,1.16,207.83,1.12,204.09,.96,206.38,.67,203.00,.45,192.29,.28,174.03,.22,170.39,.03,73.48
2018.11.07-02:00,2.41,217.87,2.22,216.14,1.95,215.25,1.80,205.57,1.75,211.27,1.56,208.72,1.41,209.27,1.24,206.54,1.20,211.86,1.16,206.96,.96,209.35,.66,205.39,.44,195.24,.28,182.83,.20,184.81,.02,50.42
2018.11.07-03:00,2.50,219.73,2.31,218.43,2.01,212.24,1.97,204.53,1.84,211.95,1.62,209.62,1.46,210.82,1.29,209.12,1.23,214.48,1.18,209.01,.94,210.98,.66,206.95,.44,197.51,.28,190.70,.19,197.79,.01,1.74
2018.11.07-04:00,2.48,223.58,2.29,222.88,2.09,212.53,2.13,206.46,1.92,213.20,1.67,210.33,1.52,211.05,1.35,209.92,1.26,214.67,1.20,209.65,.93,210.40,.67,207.10,.43,197.77,.26,195.26,.16,207.19,.03,344.93
2018.11.07-05:00,2.36,228.27,2.16,228.09,2.14,215.67,2.24,210.62,1.99,215.11,1.71,210.33,1.57,210.49,1.41,209.33,1.26,212.98,1.21,209.11,.92,208.24,.67,205.93,.42,194.96,.23,192.98,.10,206.45,.04,351.77
2018.11.07-06:00,2.20,231.06,1.98,231.04,2.10,218.90,2.26,215.45,1.99,216.97,1.70,209.41,1.60,209.71,1.44,208.39,1.25,210.85,1.21,208.26,.90,206.20,.67,204.89,.42,191.04,.21,184.20,.06,174.20,.06,1.63
2018.11.07-07:00,2.02,230.99,1.79,230.56,1.98,220.57,2.18,219.68,1.90,218.27,1.65,207.91,1.56,209.06,1.43,207.84,1.22,209.18,1.17,207.80,.87,204.97,.68,205.07,.44,189.14,.23,176.73,.09,144.04,.05,11.49
2018.11.07-08:00,1.83,229.17,1.63,228.02,1.82,220.47,2.03,223.07,1.75,219.28,1.56,206.71,1.48,208.74,1.38,208.24,1.18,208.31,1.12,208.21,.85,204.52,.70,206.21,.48,190.03,.28,175.42,.16,147.54,.04,32.98
2018.11.07-09:00,1.74,225.12,1.55,223.62,1.70,218.07,1.85,224.59,1.59,218.74,1.50,206.24,1.39,208.46,1.33,209.81,1.15,208.61,1.07,209.80,.84,205.53,.72,208.54,.51,192.91,.33,177.87,.22,154.39,.03,73.04
2018.11.07-10:00,1.85,220.66,1.60,218.83,1.71,214.74,1.70,223.07,1.51,215.63,1.50,206.65,1.34,208.17,1.30,211.91,1.14,209.63,1.03,211.85,.85,207.68,.73,211.25,.51,195.86,.34,180.41,.23,156.78,.03,83.65
2018.11.07-11:00,1.97,218.92,1.67,217.03,1.77,212.54,1.63,218.96,1.52,211.85,1.54,207.65,1.36,208.67,1.31,213.86,1.17,210.94,1.02,213.46,.87,209.77,.72,213.05,.51,198.84,.31,184.81,.22,161.27,.02,54.60
2018.11.07-12:00,2.12,218.03,1.77,216.04,1.87,211.51,1.63,213.26,1.61,208.56,1.60,208.70,1.39,210.15,1.33,215.27,1.22,212.36,1.03,214.39,.89,211.44,.72,213.86,.49,202.37,.27,193.99,.18,174.86,.03,1.98
2018.11.07-13:00,2.31,218.67,1.91,215.90,1.98,211.85,1.71,208.28,1.72,206.89,1.64,209.99,1.42,211.98,1.34,215.83,1.25,213.75,1.03,214.76,.92,212.91,.74,213.61,.50,204.93,.26,205.28,.16,197.47,.05,330.96
2018.11.07-14:00,2.47,220.54,2.06,216.12,2.06,213.01,1.83,205.90,1.82,207.51,1.67,212.32,1.43,213.25,1.33,215.40,1.26,214.92,1.04,214.62,.96,214.58,.77,212.76,.51,205.42,.26,213.08,.17,217.14,.06,317.90
2018.11.07-15:00,2.52,222.26,2.17,216.60,2.11,214.16,1.99,206.48,1.91,209.97,1.69,214.99,1.44,213.37,1.32,214.73,1.26,215.79,1.06,213.91,.99,216.08,.81,211.48,.54,204.24,.27,216.02,.18,228.07,.06,310.61
2018.11.07-16:00,2.45,222.14,2.22,216.84,2.14,214.74,2.12,209.47,1.98,213.69,1.70,217.21,1.46,212.75,1.32,214.09,1.24,215.47,1.07,212.29,1.00,216.29,.84,209.31,.57,202.68,.27,216.97,.17,236.47,.06,308.92
2018.11.07-17:00,2.31,221.65,2.17,217.43,2.15,214.81,2.20,212.83,2.01,216.59,1.70,217.62,1.48,211.56,1.32,212.46,1.21,212.90,1.09,209.46,1.00,214.50,.87,206.70,.59,202.02,.22,221.51,.14,257.56,.06,321.84
2018.11.07-18:00,2.13,222.29,2.02,218.64,2.11,215.43,2.20,215.70,1.98,218.10,1.67,216.81,1.49,210.79,1.32,210.01,1.19,208.64,1.12,206.11,1.00,211.29,.89,203.83,.59,201.10,.15,230.11,.13,299.88,.08,338.97
2018.11.07-19:00,1.97,223.15,1.86,219.81,2.02,216.89,2.14,218.33,1.90,218.70,1.61,215.38,1.46,210.46,1.31,207.84,1.19,204.05,1.14,203.02,1.01,208.00,.92,201.13,.60,199.76,.08,241.89,.17,339.36,.11,353.63
2018.11.07-20:00,1.83,220.64,1.74,218.32,1.93,217.92,2.04,220.79,1.78,218.68,1.53,213.41,1.38,209.80,1.28,206.22,1.18,200.40,1.15,201.20,1.02,205.58,.94,199.49,.60,198.81,.02,275.11,.22,5.23,.13,5.81
2018.11.07-21:00,1.81,216.54,1.73,214.86,1.90,218.59,1.93,222.80,1.68,218.39,1.46,211.74,1.31,208.82,1.25,204.99,1.17,198.70,1.14,201.12,1.01,204.26,.94,199.11,.57,197.88,.06,65.06,.27,28.05,.15,19.33
2018.11.07-22:00,1.85,213.44,1.77,211.46,1.90,219.08,1.82,224.09,1.61,218.23,1.42,211.23,1.26,207.90,1.23,204.61,1.18,199.23,1.13,202.56,1.01,204.04,.92,199.88,.54,197.09,.14,78.43,.33,47.88,.16,33.35
2018.11.07-23:00,1.91,210.67,1.83,208.14,1.88,218.36,1.70,223.71,1.54,217.44,1.40,211.45,1.25,206.69,1.23,204.90,1.21,201.04,1.13,204.63,1.01,204.76,.90,201.90,.51,198.19,.18,91.59,.34,63.34,.15,44.39
2018.11.07-24:00,2.00,210.06,1.93,207.06,1.91,217.42,1.62,221.22,1.52,215.43,1.42,212.02,1.29,205.65,1.26,205.43,1.26,203.04,1.14,206.45,1.01,205.53,.87,204.18,.49,200.15,.20,105.90,.32,76.49,.13,52.96
2018.11.08-01:00,2.12,212.26,2.05,208.80,1.97,217.25,1.62,217.02,1.57,212.76,1.47,212.93,1.36,205.76,1.32,206.38,1.32,204.85,1.17,207.91,1.02,205.87,.85,205.61,.47,200.90,.21,120.57,.30,89.31,.10,60.14
2018.11.08-02:00,2.18,215.17,2.11,211.08,1.99,217.47,1.70,212.47,1.67,210.80,1.52,214.23,1.44,207.31,1.38,207.82,1.38,206.77,1.21,209.21,1.04,205.86,.83,205.65,.46,199.49,.24,136.15,.27,104.66,.08,67.70
2018.11.08-03:00,2.21,219.19,2.14,214.31,1.99,218.00,1.83,209.78,1.80,210.57,1.56,215.35,1.51,209.41,1.42,208.90,1.43,208.68,1.24,209.86,1.04,205.28,.81,203.96,.47,195.91,.28,149.09,.26,121.07,.07,74.46
2018.11.08-04:00,2.22,224.50,2.15,218.97,1.96,218.74,1.94,209.73,1.89,211.96,1.58,215.65,1.57,211.12,1.45,209.14,1.45,210.37,1.26,209.31,1.04,204.08,.81,200.75,.49,190.95,.33,157.96,.27,134.48,.06,78.78
2018.11.08-05:00,2.19,229.52,2.11,223.55,1.91,219.00,2.02,211.32,1.93,214.06,1.60,214.93,1.60,212.14,1.47,208.73,1.45,211.65,1.26,207.75,1.03,202.42,.81,196.68,.51,185.71,.37,163.00,.28,141.68,.06,78.50
2018.11.08-06:00,2.09,231.81,2.02,225.55,1.88,217.75,2.06,213.77,1.91,215.79,1.61,213.44,1.61,212.68,1.48,208.25,1.43,212.10,1.25,205.64,1.02,200.41,.81,192.50,.55,181.34,.39,165.48,.28,143.32,.06,74.69
2018.11.08-07:00,1.91,231.89,1.84,225.50,1.82,216.41,2.04,216.68,1.85,216.78,1.61,211.59,1.58,213.03,1.49,208.09,1.39,211.14,1.23,203.26,1.01,198.13,.83,189.01,.59,178.76,.40,166.90,.29,142.34,.08,73.97
2018.11.08-08:00,1.68,228.89,1.61,222.61,1.71,214.71,1.95,219.52,1.78,217.88,1.60,210.33,1.52,213.32,1.47,208.85,1.35,209.55,1.22,201.17,1.00,196.22,.85,186.80,.62,177.92,.40,167.38,.30,139.75,.09,77.45
2018.11.08-09:00,1.53,222.85,1.46,216.85,1.64,212.16,1.84,221.93,1.70,219.48,1.60,210.65,1.45,213.69,1.44,210.25,1.31,208.44,1.20,199.66,1.00,194.89,.86,185.49,.64,177.55,.39,165.23,.32,134.88,.11,81.36
2018.11.08-10:00,1.56,216.71,1.48,210.61,1.67,209.27,1.74,222.76,1.61,219.95,1.58,211.70,1.39,213.84,1.40,211.49,1.29,207.90,1.20,199.09,.99,194.38,.87,185.46,.64,178.11,.38,162.31,.34,132.24,.12,85.23
2018.11.08-11:00,1.74,213.64,1.66,207.07,1.81,207.76,1.65,221.43,1.54,218.46,1.57,212.82,1.35,213.42,1.35,212.29,1.28,208.10,1.19,199.65,.97,194.73,.87,186.59,.63,179.65,.37,160.70,.35,134.28,.12,90.98
2018.11.08-12:00,1.95,213.97,1.88,207.03,1.97,208.73,1.62,218.54,1.52,215.77,1.58,214.23,1.35,213.20,1.32,212.91,1.28,209.21,1.20,201.10,.97,195.61,.87,188.27,.62,181.25,.37,160.74,.36,140.15,.10,101.45
2018.11.08-13:00,2.09,216.91,2.06,209.12,2.12,210.75,1.67,214.93,1.57,213.04,1.61,215.79,1.41,213.77,1.33,213.52,1.29,210.81,1.22,202.87,.97,196.45,.86,189.88,.62,182.39,.40,162.27,.37,147.86,.09,115.02
2018.11.08-14:00,2.12,220.58,2.14,212.26,2.21,212.83,1.77,211.54,1.66,210.50,1.64,216.76,1.48,214.93,1.36,213.98,1.30,211.99,1.24,204.16,.97,196.95,.84,191.30,.62,183.86,.43,166.37,.38,157.35,.08,129.04
2018.11.08-15:00,2.09,221.69,2.17,214.63,2.25,214.69,1.90,209.17,1.76,208.63,1.65,217.05,1.51,216.38,1.39,214.60,1.30,212.39,1.24,204.71,.97,197.22,.82,192.70,.63,186.30,.47,172.54,.39,167.52,.07,143.03
2018.11.08-16:00,2.04,222.29,2.17,217.75,2.23,216.94,2.02,209.78,1.84,208.55,1.62,217.35,1.49,217.94,1.39,215.29,1.29,212.14,1.23,204.45,.97,196.76,.82,193.08,.64,188.37,.53,177.79,.42,174.51,.08,156.76
2018.11.08-17:00,2.04,222.24,2.17,219.96,2.18,218.31,2.06,212.48,1.87,209.97,1.57,217.37,1.43,218.56,1.37,215.42,1.28,211.01,1.23,203.27,.99,195.51,.82,191.96,.65,189.11,.56,181.00,.43,176.87,.08,165.81
2018.11.08-18:00,2.04,221.88,2.11,220.41,2.10,218.11,2.02,215.37,1.87,211.60,1.51,216.21,1.35,216.78,1.33,213.73,1.27,208.30,1.24,201.18,1.02,193.73,.82,189.94,.64,188.97,.56,183.15,.39,176.27,.07,170.06
2018.11.08-19:00,1.96,222.34,1.98,220.11,1.99,217.90,1.92,217.78,1.82,213.20,1.44,213.83,1.28,212.50,1.29,209.96,1.28,204.11,1.26,198.75,1.05,191.70,.83,187.64,.62,188.20,.51,184.24,.32,172.35,.05,165.22
2018.11.08-20:00,1.85,222.78,1.84,219.63,1.88,218.74,1.79,220.38,1.73,215.87,1.38,212.10,1.22,207.65,1.25,205.78,1.28,199.92,1.27,197.02,1.07,189.63,.83,184.89,.59,185.33,.45,181.71,.26,159.78,.04,129.14
2018.11.08-21:00,1.74,220.60,1.74,217.24,1.78,218.85,1.64,222.20,1.60,218.75,1.33,211.81,1.19,204.11,1.22,203.13,1.28,197.17,1.26,196.75,1.07,188.36,.83,182.49,.57,180.74,.40,175.07,.26,142.98,.06,100.02
2018.11.08-22:00,1.66,215.73,1.66,212.37,1.72,216.70,1.52,221.48,1.45,219.63,1.27,211.44,1.16,201.60,1.18,202.05,1.26,196.27,1.21,197.89,1.05,188.72,.82,181.52,.57,177.20,.39,169.09,.31,137.27,.09,102.55
2018.11.08-23:00,1.63,211.97,1.63,208.03,1.72,213.62,1.46,218.57,1.35,217.80,1.23,210.20,1.14,199.39,1.15,201.71,1.24,196.95,1.14,199.39,1.01,190.29,.80,181.92,.57,176.19,.40,167.56,.36,141.44,.11,113.96
2018.11.08-24:00,1.68,210.49,1.69,205.86,1.81,211.77,1.49,214.92,1.34,214.13,1.24,208.22,1.17,197.46,1.14,201.48,1.22,198.90,1.07,200.35,.97,192.56,.77,183.49,.57,177.85,.40,170.02,.39,149.43,.12,127.11
2018.11.09-01:00,1.79,210.53,1.82,205.66,1.93,211.87,1.58,211.53,1.40,210.21,1.31,206.38,1.26,196.56,1.16,201.31,1.21,201.49,1.04,200.46,.94,194.80,.74,185.84,.55,181.30,.39,174.15,.40,157.92,.12,138.69
2018.11.09-02:00,1.91,212.15,1.97,207.53,2.00,213.10,1.69,208.10,1.51,206.69,1.40,205.14,1.38,197.62,1.21,201.51,1.22,203.98,1.05,200.31,.92,196.52,.71,188.19,.53,185.18,.37,178.01,.39,165.56,.11,146.19
2018.11.09-03:00,2.02,215.23,2.09,211.08,1.97,213.78,1.80,205.31,1.61,204.54,1.46,204.76,1.49,201.43,1.26,202.44,1.22,206.09,1.08,200.52,.93,197.96,.71,189.75,.53,187.86,.37,180.87,.37,172.75,.08,150.65
2018.11.09-04:00,2.08,219.55,2.12,215.58,1.88,213.87,1.86,205.71,1.66,204.95,1.45,205.01,1.55,207.70,1.30,204.41,1.22,207.65,1.11,200.96,.95,198.96,.74,189.86,.55,187.64,.40,181.53,.37,178.27,.05,156.36
2018.11.09-05:00,2.11,222.92,2.12,219.14,1.81,213.18,1.89,208.61,1.70,206.76,1.45,204.77,1.54,213.89,1.33,207.04,1.21,208.50,1.14,201.32,.99,199.51,.78,189.09,.57,185.23,.42,180.00,.36,181.25,.03,171.33
2018.11.09-06:00,2.12,224.45,2.12,220.97,1.80,211.33,1.91,211.52,1.74,207.94,1.49,203.90,1.47,217.72,1.34,209.31,1.21,209.11,1.15,201.28,1.02,199.80,.81,188.14,.58,181.79,.42,176.51,.31,181.79,.01,294.83
2018.11.09-07:00,2.08,225.65,2.07,222.32,1.79,210.36,1.85,213.74,1.73,209.12,1.53,203.50,1.37,218.67,1.31,210.82,1.19,209.83,1.15,200.77,1.04,199.69,.83,187.21,.60,178.35,.44,172.25,.26,179.82,.04,325.71
2018.11.09-08:00,1.90,224.45,1.94,221.25,1.75,209.31,1.73,215.01,1.68,210.88,1.55,204.09,1.26,216.87,1.27,211.50,1.17,210.61,1.13,200.23,1.05,199.50,.84,186.70,.61,176.02,.45,169.30,.23,176.20,.05,331.42
2018.11.09-09:00,1.68,219.21,1.79,217.03,1.72,207.89,1.62,215.53,1.61,213.26,1.55,205.90,1.19,213.69,1.22,211.85,1.14,211.39,1.12,200.28,1.04,199.58,.83,186.21,.62,174.32,.46,167.28,.20,169.24,.06,339.64
2018.11.09-10:00,1.53,213.21,1.72,213.44,1.74,207.16,1.55,215.23,1.54,215.50,1.55,208.58,1.16,210.90,1.19,212.23,1.10,211.90,1.10,201.10,1.01,199.95,.82,185.55,.63,173.17,.47,166.20,.19,160.19,.06,352.17
2018.11.09-11:00,1.39,207.55,1.64,211.53,1.77,206.31,1.52,212.82,1.47,215.55,1.53,210.57,1.17,208.95,1.15,212.31,1.07,211.88,1.09,202.73,.99,201.15,.81,186.27,.65,174.62,.47,168.69,.19,158.93,.05,359.39
2018.11.09-12:00,1.31,201.16,1.58,209.77,1.84,205.77,1.56,209.38,1.44,212.85,1.51,211.27,1.21,208.32,1.13,211.75,1.05,210.94,1.10,204.70,.97,202.77,.80,188.56,.65,178.36,.45,174.05,.17,164.17,.05,355.50
2018.11.09-13:00,1.45,196.68,1.69,207.85,2.01,207.28,1.68,207.22,1.49,209.08,1.53,211.16,1.28,209.08,1.13,210.76,1.06,209.02,1.11,206.38,.95,203.84,.79,191.47,.65,182.96,.41,180.45,.13,172.18,.06,346.19
2018.11.09-14:00,1.71,195.47,1.90,206.98,2.15,209.98,1.85,206.29,1.62,205.68,1.57,210.35,1.34,210.27,1.16,209.44,1.10,206.68,1.13,207.39,.94,204.05,.77,194.32,.62,187.65,.34,187.11,.07,188.13,.08,341.80
2018.11.09-15:00,1.94,195.96,2.08,206.97,2.19,211.67,2.01,206.52,1.76,203.64,1.62,209.56,1.39,211.35,1.21,208.40,1.16,205.00,1.15,207.90,.94,203.90,.75,196.56,.59,191.78,.27,193.36,.03,264.52,.10,341.40
2018.11.09-16:00,2.13,198.68,2.21,208.95,2.16,213.08,2.10,208.93,1.88,204.02,1.65,209.46,1.40,212.54,1.25,207.90,1.21,204.03,1.17,207.70,.96,202.82,.74,197.09,.57,193.48,.21,194.43,.05,316.95,.11,342.93
2018.11.09-17:00,2.28,203.44,2.27,211.80,2.08,214.71,2.09,211.75,1.94,205.75,1.66,209.73,1.39,213.35,1.29,207.75,1.24,203.24,1.17,207.19,.99,200.91,.74,196.56,.54,193.33,.18,189.52,.07,329.32,.11,342.74
2018.11.09-18:00,2.31,209.45,2.26,216.30,1.95,217.16,1.99,214.35,1.91,207.99,1.62,209.91,1.33,213.20,1.30,207.39,1.26,202.43,1.17,206.48,1.05,198.53,.76,195.25,.53,191.89,.18,180.84,.08,333.39,.11,340.61
2018.11.09-19:00,2.29,212.73,2.19,218.98,1.81,217.23,1.88,215.19,1.83,209.14,1.55,209.10,1.28,210.79,1.31,205.97,1.29,201.70,1.17,205.32,1.10,196.55,.77,193.50,.50,189.71,.16,171.09,.11,342.53,.12,340.17
2018.11.09-20:00,2.19,213.78,2.07,219.34,1.70,214.75,1.77,214.71,1.75,209.35,1.50,207.06,1.26,206.50,1.32,203.54,1.32,201.03,1.17,203.44,1.13,194.95,.77,191.08,.45,185.63,.13,153.34,.18,353.10,.15,342.53
2018.11.09-21:00,2.00,214.14,1.87,218.46,1.59,211.36,1.66,213.64,1.66,209.52,1.47,205.43,1.26,202.19,1.33,201.35,1.35,200.80,1.17,201.27,1.14,193.81,.75,188.31,.40,179.19,.12,129.61,.25,1.00,.18,344.97
2018.11.09-22:00,1.82,214.11,1.68,216.72,1.54,207.83,1.59,211.88,1.60,210.20,1.44,205.31,1.28,199.10,1.34,200.03,1.35,200.87,1.16,199.22,1.13,193.10,.72,185.53,.37,170.85,.14,114.22,.30,9.30,.20,348.76
2018.11.09-23:00,1.73,211.87,1.58,212.49,1.62,204.31,1.60,209.69,1.58,210.94,1.41,205.93,1.30,197.45,1.33,199.40,1.33,200.88,1.14,197.57,1.09,192.92,.69,183.67,.35,163.70,.16,110.35,.34,16.77,.20,353.27
2018.11.09-24:00,1.69,210.17,1.54,208.83,1.73,202.82,1.63,208.30,1.53,210.87,1.37,205.87,1.32,196.76,1.32,198.97,1.30,200.56,1.13,196.42,1.05,193.21,.67,183.80,.35,161.41,.16,115.76,.35,21.54,.20,356.55
2018.11.10-01:00,1.71,209.05,1.59,206.12,1.84,202.41,1.65,206.59,1.49,208.08,1.34,203.73,1.34,196.49,1.32,198.55,1.28,200.10,1.14,196.18,1.02,194.25,.66,186.37,.34,164.01,.13,122.53,.35,21.02,.20,357.47
2018.11.10-02:00,1.75,211.32,1.62,207.15,1.92,203.92,1.66,205.17,1.49,203.78,1.34,201.20,1.38,197.38,1.34,198.89,1.28,200.38,1.17,197.19,1.03,196.14,.67,190.30,.34,168.50,.10,131.46,.34,18.60,.20,357.94
2018.11.10-03:00,1.85,212.24,1.70,206.93,2.00,205.60,1.70,202.45,1.56,198.79,1.40,198.10,1.44,198.78,1.38,199.98,1.30,201.20,1.21,198.97,1.04,198.40,.67,194.29,.34,172.01,.06,133.77,.35,13.80,.21,358.58
2018.11.10-04:00,2.00,212.06,1.88,207.09,2.08,207.97,1.77,199.70,1.68,195.92,1.48,195.72,1.49,200.41,1.42,201.62,1.32,202.05,1.23,200.80,1.04,200.23,.66,196.86,.34,172.46,.03,99.27,.36,9.37,.21,359.12
2018.11.10-05:00,2.15,211.36,2.07,208.15,2.09,210.97,1.84,199.53,1.79,196.64,1.58,195.11,1.52,202.18,1.45,203.64,1.35,202.60,1.25,202.07,1.04,200.84,.66,197.01,.35,169.58,.04,55.97,.38,7.94,.21,359.88
2018.11.10-06:00,2.23,210.74,2.15,209.66,1.99,214.74,1.85,201.97,1.83,200.03,1.67,196.05,1.53,203.48,1.47,205.23,1.39,202.46,1.26,201.96,1.04,199.87,.66,194.86,.38,166.17,.07,56.83,.40,8.81,.21,.58
2018.11.10-07:00,2.25,211.66,2.14,211.92,1.82,218.17,1.80,205.29,1.79,204.11,1.71,197.93,1.50,203.61,1.46,205.53,1.41,201.55,1.26,200.21,1.05,197.64,.67,191.59,.42,164.53,.09,58.63,.43,9.79,.22,.91
2018.11.10-08:00,2.19,214.82,2.06,215.14,1.63,219.93,1.71,208.20,1.72,207.89,1.72,201.04,1.46,202.98,1.43,204.62,1.42,200.41,1.26,197.46,1.05,194.78,.69,188.27,.45,164.06,.11,59.83,.46,11.52,.22,2.01
2018.11.10-09:00,1.99,216.89,1.85,217.20,1.44,218.59,1.62,209.91,1.63,210.87,1.69,205.26,1.41,202.47,1.39,203.13,1.41,199.61,1.26,194.82,1.05,192.18,.70,185.95,.48,165.18,.12,65.65,.48,13.71,.23,4.64
2018.11.10-10:00,1.77,215.22,1.63,215.85,1.31,213.62,1.54,210.27,1.57,213.06,1.63,209.31,1.39,202.79,1.35,201.50,1.37,199.12,1.25,192.69,1.03,189.92,.71,184.51,.51,167.79,.12,74.30,.49,15.38,.24,7.48
2018.11.10-11:00,1.66,210.65,1.50,211.31,1.30,205.28,1.49,207.88,1.53,213.42,1.56,211.30,1.37,203.91,1.32,200.21,1.32,198.65,1.23,191.36,1.01,188.36,.70,184.33,.51,172.94,.11,80.11,.49,15.03,.24,8.45
2018.11.10-12:00,1.70,208.32,1.52,208.62,1.40,198.32,1.50,203.81,1.50,212.08,1.47,210.98,1.34,205.35,1.30,199.80,1.27,198.17,1.22,190.92,.99,187.93,.69,185.63,.50,181.25,.08,87.26,.48,13.64,.24,8.04
2018.11.10-13:00,1.82,210.01,1.62,210.00,1.58,196.19,1.56,201.15,1.47,210.32,1.39,209.31,1.31,206.89,1.29,200.38,1.24,197.89,1.21,191.31,.98,188.76,.69,188.29,.48,192.21,.04,107.47,.47,12.66,.23,7.51
2018.11.10-14:00,1.92,214.08,1.69,213.72,1.75,199.20,1.63,202.21,1.45,210.11,1.33,207.53,1.27,208.28,1.29,201.59,1.24,198.22,1.23,192.54,1.00,190.69,.70,191.83,.46,204.08,.03,184.45,.44,13.05,.22,8.08
2018.11.10-15:00,1.98,214.95,1.76,213.88,1.90,204.09,1.68,206.15,1.46,211.41,1.33,205.96,1.28,208.86,1.31,202.56,1.29,199.41,1.26,194.56,1.02,193.41,.70,195.99,.41,216.29,.04,253.56,.41,13.37,.21,9.75
2018.11.10-16:00,2.04,212.04,1.88,210.59,1.99,208.39,1.71,209.51,1.48,211.64,1.40,204.09,1.32,208.38,1.35,202.75,1.37,201.27,1.29,196.83,1.04,196.21,.67,199.97,.35,229.85,.08,293.18,.40,11.75,.20,10.47
2018.11.10-17:00,2.05,209.97,1.97,209.01,1.96,211.82,1.69,211.50,1.49,210.54,1.50,202.79,1.37,207.53,1.39,202.45,1.44,203.15,1.30,198.59,1.04,198.10,.63,202.39,.28,243.11,.13,309.86,.39,8.50,.20,9.90
2018.11.10-18:00,2.07,211.91,2.01,210.77,1.89,214.74,1.65,212.45,1.49,209.16,1.60,202.75,1.41,206.77,1.41,201.72,1.47,204.12,1.30,199.22,1.03,198.65,.60,202.50,.21,253.98,.17,321.37,.39,4.83,.19,7.93
2018.11.10-19:00,2.03,216.17,1.96,214.76,1.75,217.20,1.56,212.90,1.45,208.19,1.65,203.88,1.42,206.13,1.42,200.85,1.47,203.89,1.30,199.03,1.02,198.49,.58,201.27,.15,259.45,.20,329.99,.39,1.48,.19,5.00
2018.11.10-20:00,1.98,218.86,1.88,217.98,1.61,218.17,1.48,212.86,1.41,207.33,1.65,205.66,1.41,205.27,1.44,200.38,1.45,202.86,1.29,198.59,1.00,197.97,.56,199.70,.08,261.27,.23,340.61,.42,.17,.19,2.56
2018.11.10-21:00,1.90,219.56,1.75,219.75,1.53,219.13,1.45,214.15,1.40,207.62,1.64,207.79,1.40,204.73,1.44,200.81,1.43,202.05,1.28,198.33,.95,197.11,.52,197.56,.02,221.53,.25,352.23,.46,1.89,.20,2.00
2018.11.10-22:00,1.82,219.12,1.64,220.01,1.48,220.02,1.43,215.67,1.39,208.11,1.60,209.03,1.39,204.16,1.43,201.63,1.40,202.15,1.25,198.55,.89,196.35,.48,195.96,.05,131.14,.25,1.14,.49,4.53,.21,2.29
2018.11.10-23:00,1.76,218.68,1.58,219.71,1.42,219.87,1.39,216.27,1.38,208.38,1.54,209.39,1.39,203.87,1.42,202.58,1.38,203.38,1.21,199.07,.83,195.82,.44,195.45,.08,138.40,.25,6.64,.51,7.63,.22,3.28
2018.11.10-24:00,1.61,218.20,1.44,219.35,1.31,217.95,1.34,216.18,1.36,208.82,1.49,209.28,1.40,204.66,1.42,203.75,1.37,205.55,1.19,199.85,.79,195.74,.42,196.84,.10,162.62,.22,6.76,.50,10.33,.22,4.56
2018.11.11-01:00,1.39,216.60,1.24,217.49,1.21,213.69,1.28,215.39,1.34,209.68,1.45,209.10,1.40,206.45,1.42,205.04,1.36,207.89,1.19,201.18,.76,196.45,.41,200.74,.14,193.08,.19,355.87,.46,10.71,.20,5.11
2018.11.11-02:00,1.39,211.03,1.28,210.27,1.28,207.47,1.30,212.12,1.35,209.27,1.44,209.16,1.38,208.43,1.43,206.56,1.35,209.68,1.19,203.29,.73,198.21,.41,206.87,.18,220.07,.20,336.21,.41,7.38,.19,4.13
2018.11.11-03:00,1.61,206.85,1.52,205.19,1.45,203.20,1.38,207.89,1.39,207.61,1.44,209.38,1.35,209.73,1.43,207.99,1.35,210.73,1.18,205.91,.72,200.68,.42,213.94,.23,242.73,.26,322.29,.38,359.43,.17,1.08
2018.11.11-04:00,1.87,207.16,1.79,206.16,1.59,202.45,1.48,205.67,1.46,206.92,1.47,209.97,1.35,210.09,1.46,208.93,1.37,211.11,1.18,208.02,.73,202.60,.43,219.84,.27,261.12,.34,319.38,.39,349.74,.17,357.26
2018.11.11-05:00,2.08,208.85,2.01,208.90,1.71,204.60,1.59,207.10,1.53,209.31,1.51,211.75,1.38,211.03,1.52,210.11,1.42,211.91,1.18,209.61,.75,203.36,.42,222.32,.29,276.27,.41,323.55,.43,344.60,.18,355.69
2018.11.11-06:00,2.24,211.00,2.16,211.77,1.81,209.47,1.65,211.85,1.56,214.03,1.52,214.64,1.41,213.00,1.56,212.17,1.48,213.95,1.19,210.82,.79,203.55,.42,220.30,.26,287.52,.45,330.83,.47,344.35,.18,355.73
2018.11.11-07:00,2.22,215.50,2.14,216.53,1.83,215.60,1.64,217.30,1.52,218.05,1.48,216.93,1.41,215.02,1.58,214.55,1.53,216.86,1.21,211.80,.84,204.55,.45,215.89,.20,288.36,.44,337.96,.49,345.36,.18,355.21
2018.11.11-08:00,2.06,220.70,1.99,221.79,1.79,220.31,1.58,220.29,1.46,218.54,1.43,216.37,1.41,215.72,1.57,216.30,1.55,219.94,1.25,213.41,.87,207.52,.50,213.66,.16,275.37,.42,345.55,.50,347.89,.17,354.64
2018.11.11-09:00,1.84,221.44,1.75,222.81,1.69,221.42,1.52,219.14,1.43,215.10,1.42,212.91,1.43,214.80,1.57,216.96,1.54,222.20,1.28,215.63,.88,211.43,.53,215.70,.15,264.01,.42,352.40,.53,351.84,.17,353.87
2018.11.11-10:00,1.67,220.00,1.57,221.41,1.59,221.53,1.48,217.43,1.44,212.45,1.46,210.46,1.45,214.17,1.56,216.98,1.51,223.33,1.27,217.26,.86,214.77,.55,219.20,.17,257.37,.41,358.16,.56,357.19,.17,356.02
2018.11.11-11:00,1.61,217.07,1.47,218.27,1.53,221.18,1.47,217.25,1.46,212.61,1.50,210.99,1.47,215.03,1.55,217.35,1.46,223.77,1.24,218.17,.81,217.58,.55,222.47,.20,251.53,.37,4.15,.56,4.43,.17,1.61
2018.11.11-12:00,1.55,214.31,1.38,214.90,1.49,219.61,1.45,217.20,1.47,213.71,1.54,213.41,1.48,217.01,1.54,218.63,1.42,223.86,1.21,218.35,.78,219.47,.56,225.65,.24,249.06,.30,8.96,.53,12.34,.16,8.56
2018.11.11-13:00,1.41,212.18,1.23,211.93,1.42,216.66,1.40,215.65,1.45,213.89,1.54,215.93,1.49,219.03,1.52,220.16,1.38,223.49,1.21,217.94,.78,220.52,.58,229.57,.30,251.49,.22,5.01,.46,17.50,.14,13.06
2018.11.11-14:00,1.46,208.58,1.32,206.66,1.47,211.10,1.43,210.76,1.48,211.89,1.53,216.99,1.50,220.11,1.52,221.29,1.37,222.61,1.23,217.33,.78,221.53,.60,234.96,.36,259.86,.18,344.26,.39,16.99,.12,12.43
2018.11.11-15:00,1.68,203.66,1.64,201.92,1.65,204.37,1.56,204.60,1.56,208.93,1.53,216.05,1.52,219.95,1.52,221.38,1.39,220.97,1.27,216.92,.80,223.06,.60,241.75,.42,271.21,.23,323.83,.35,8.99,.11,5.38
2018.11.11-16:00,1.92,203.82,1.91,203.07,1.82,202.35,1.73,203.04,1.68,208.52,1.56,214.49,1.57,218.92,1.54,219.81,1.45,218.17,1.33,216.28,.82,223.42,.60,246.65,.47,279.95,.30,317.89,.34,359.63,.10,357.95
2018.11.11-17:00,2.11,206.36,2.11,206.18,1.97,204.53,1.89,206.01,1.78,210.74,1.62,213.82,1.64,217.74,1.60,217.50,1.56,215.54,1.40,215.92,.84,222.46,.58,248.56,.48,285.97,.34,319.97,.34,355.94,.10,356.23
2018.11.11-18:00,2.23,208.50,2.22,208.79,2.07,208.60,1.98,210.63,1.81,213.73,1.66,214.22,1.70,216.67,1.67,215.75,1.67,214.39,1.45,216.11,.86,220.53,.56,247.34,.45,288.98,.34,324.14,.33,357.24,.09,359.54
2018.11.11-19:00,2.25,210.68,2.23,211.24,2.07,212.38,1.99,215.03,1.79,216.07,1.68,214.63,1.73,215.92,1.74,215.20,1.75,214.89,1.47,216.18,.89,217.52,.53,242.97,.39,289.25,.31,329.81,.31,1.56,.08,5.35
2018.11.11-20:00,2.19,215.10,2.17,215.26,2.01,214.00,1.94,216.84,1.74,215.36,1.69,213.00,1.75,214.60,1.78,214.87,1.78,215.81,1.48,215.18,.92,214.16,.52,238.07,.33,289.95,.30,339.28,.32,6.50,.07,7.86
2018.11.11-21:00,2.12,221.45,2.08,220.73,1.95,214.59,1.86,216.42,1.71,212.47,1.70,210.47,1.77,212.97,1.80,214.44,1.76,215.97,1.48,213.04,.95,211.19,.49,233.87,.27,294.22,.31,353.74,.37,13.40,.08,9.86
2018.11.11-22:00,2.01,226.72,1.98,225.43,1.89,216.09,1.78,216.38,1.68,210.70,1.70,209.59,1.76,212.38,1.78,214.38,1.71,215.71,1.48,211.12,.97,209.50,.47,229.11,.18,299.14,.32,10.73,.43,23.62,.09,16.25